Location: Little Chesterford
(52.0500°N, 0.1833°E)
Time: 04:02:42
(UTC+00:00)

ERS-1 Rocket - Pass Details

Date: 26 September 2023
Orbit: 750 x 756 km, 98.3° (Epoch: 29 November)

Event Time Altitude Azimuth Distance (km) Brightness Sun altitude
Exits shadow 20:59:39 60° 12° (NNE) 869 3.3 -28.1°
Drops below altitude 10° 21:03:52 10° 348° (NNW) 2,299 6.1 -28.6°
Sets 21:06:11 0° 347° (NNW) 3,229 7.0 -28.9°
